TimeCST,TemperatureF,Dew PointF,Humidity,Sea Level PressureIn,VisibilityMPH,Wind Direction,Wind SpeedMPH,Gust SpeedMPH,PrecipitationIn,Events,Conditions,WindDirDegrees,DateUTC
12:56 AM,55.9,35.1,45,30.45,10.0,NE,6.9,-,N/A,,Overcast,40,2013-12-12 06:56:00
1:56 AM,55.9,34.0,44,30.45,10.0,NNE,10.4,-,N/A,,Overcast,30,2013-12-12 07:56:00
2:56 AM,55.0,35.1,47,30.45,10.0,NNE,10.4,-,N/A,,Overcast,30,2013-12-12 08:56:00
3:56 AM,54.0,35.1,49,30.45,10.0,NNE,13.8,-,N/A,,Overcast,30,2013-12-12 09:56:00
4:56 AM,51.1,34.0,52,30.45,10.0,NNE,9.2,-,N/A,,Overcast,30,2013-12-12 10:56:00
5:56 AM,51.1,34.0,52,30.46,10.0,NNE,12.7,-,N/A,,Overcast,20,2013-12-12 11:56:00
6:56 AM,48.9,34.0,56,30.49,10.0,NNE,10.4,-,N/A,,Overcast,30,2013-12-12 12:56:00
7:56 AM,48.0,34.0,58,30.50,10.0,NNE,13.8,-,N/A,,Overcast,30,2013-12-12 13:56:00
8:56 AM,50.0,35.1,57,30.51,10.0,NNE,11.5,-,N/A,,Overcast,30,2013-12-12 14:56:00
9:56 AM,53.1,35.1,50,30.53,10.0,NNE,10.4,-,N/A,,Overcast,20,2013-12-12 15:56:00
10:56 AM,57.9,35.1,42,30.53,10.0,North,6.9,-,N/A,,Overcast,10,2013-12-12 16:56:00
11:56 AM,61.0,35.1,38,30.49,10.0,North,5.8,-,N/A,,Overcast,10,2013-12-12 17:56:00
12:56 PM,59.0,34.0,39,30.44,10.0,North,6.9,-,N/A,,Overcast,10,2013-12-12 18:56:00
1:56 PM,60.1,34.0,38,30.40,10.0,NNE,4.6,-,N/A,,Overcast,30,2013-12-12 19:56:00
2:56 PM,73.0,33.1,23,30.37,10.0,North,4.6,-,N/A,,Overcast,350,2013-12-12 20:56:00
3:56 PM,60.1,34.0,38,30.36,10.0,NNE,8.1,-,N/A,,Overcast,30,2013-12-12 21:56:00
4:56 PM,59.0,35.1,41,30.37,10.0,NNE,5.8,-,N/A,,Overcast,20,2013-12-12 22:56:00
5:56 PM,63.0,35.1,35,30.36,10.0,NW,3.5,-,N/A,,Mostly Cloudy,310,2013-12-12 23:56:00
6:56 PM,66.9,36.0,32,30.36,10.0,WNW,3.5,-,N/A,,Overcast,290,2013-12-13 00:56:00
7:56 PM,63.0,37.0,38,30.36,10.0,NW,3.5,-,N/A,,Overcast,320,2013-12-13 01:56:00
8:56 PM,57.9,37.0,46,30.35,10.0,Calm,Calm,-,N/A,,Overcast,0,2013-12-13 02:56:00
9:56 PM,60.1,39.0,46,30.33,10.0,East,8.1,-,N/A,,Mostly Cloudy,80,2013-12-13 03:56:00
10:56 PM,70.0,39.0,32,30.32,10.0,ESE,4.6,-,N/A,,Partly Cloudy,120,2013-12-13 04:56:00
11:56 PM,53.1,39.0,59,30.31,10.0,Calm,Calm,-,N/A,,Clear,0,2013-12-13 05:56:00